Preview of NWS' New Version of Forecast
This preview is not operational and should not be used for support decisions.
Latest weather observations around

Santa Ana, John Wayne Airport-Orange County Airport (KSNA)

Using English Units (Switch to International System of Units)
Date/ Time (PDT) Wind (mph) Vis. (mi) Weather Sky Cond. Temp (°F) Rel. Humidity Wind Chill (°F) Heat Index (°F) Pressure Precip. (in)
Air Dwpt 6 hour Altimeter (inHg) Sea level (inHg) 1 hr 3 hr 6 hr
Max Min
Jun 18 05:53 N 5 10 Cloudy SCT023 OVC036 63 54     72%     29.97 29.97      
Jun 18 04:53 NW 5 10 Cloudy SCT023 OVC035 63 54     72%     29.97 29.97      
Jun 18 04:30 5 10 Cloudy BKN023 OVC037 64 54     70%     29.97        
Jun 18 03:53 NW 3 10 Cloudy OVC037 64 54     70%     29.96 29.96      
Jun 18 02:53 W 5 10 Cloudy OVC037 64 55     73%     29.96 29.96      
Jun 18 01:53 Calm 10 Cloudy OVC036 64 54     70%     29.97 29.97      
Jun 18 00:53 SW 5 10 Cloudy OVC034 64 55     73%     29.98 29.98      
Jun 17 23:53 Calm 10 Cloudy OVC038 64 54     70%     29.99 29.99      
Jun 17 22:53 W 3 10 Mostly Cloudy FEW022 BKN038 64 55     73%     29.99 29.99      
Jun 17 21:53 3 10 Cloudy FEW022 OVC038 64 54     70%     29.99 29.98      
Jun 17 21:42 WSW 3 10 Cloudy SCT022 SCT028 OVC038 64 54     70%     29.99        
Jun 17 21:32 W 5 10 Mostly Cloudy BKN022 BKN039 64 54     70%     29.98        
Jun 17 20:53 S 6 10 Mostly Cloudy FEW027 BKN034 64 55     73%     29.97 29.97      
Jun 17 19:53 S 9 10 Mostly Cloudy SCT027 BKN034 64 54     70%     29.96 29.96      
Jun 17 18:53 SSW 11 10 Mostly Cloudy FEW029 BKN034 65 54     68%     29.96 29.96      
Jun 17 17:53 S 10 10 Mostly Cloudy FEW029 BKN037 67 53     61%     29.95 29.95      
Jun 17 16:53 SW 9 10 Mostly Cloudy SCT031 BKN038 67 52     59%     29.96 29.96      
Jun 17 15:53 SSW 14 10 Mostly Cloudy SCT031 BKN039 68 51     55%     29.96 29.96      
Jun 17 14:53 S 13 10 Mostly Cloudy FEW034 BKN040 69 50     51%     29.96 29.96      
Jun 17 13:53 S 13 10 Mostly Cloudy FEW033 BKN039 68 49     50%     29.97 29.96      
Jun 17 12:53 SW 10 10 Mostly Cloudy FEW030 SCT036 BKN044 68 50     53%     29.96 29.96      
Jun 17 11:53 SW 13 10 Mostly Cloudy FEW026 SCT032 BKN045 68 50     53%     29.96 29.95      
Jun 17 10:53 SW 11 10 Mostly Cloudy BKN035 BKN046 67 50     55%     29.96 29.96      
Jun 17 09:53 SSW 8 10 Mostly Cloudy BKN042 65 51     61%     29.95 29.95      
Jun 17 08:53 S 8 10 Cloudy FEW030 OVC036 64 51     63%     29.95 29.94      
Jun 17 07:53 S 6 10 Cloudy FEW034 OVC044 63 51     65%     29.94 29.93      
Jun 17 06:53 SE 8 10 Cloudy OVC040 63 49     60%     29.92 29.91      
Jun 17 05:53 S 6 10 Cloudy OVC043 63 50     63%     29.9 29.89      
Jun 17 04:53 SSE 7 10 Cloudy OVC041 63 51     65%     29.89 29.88      
Jun 17 03:53 SSE 3 10 Cloudy OVC037 63 51     65%     29.88 29.88      
Jun 17 02:53 SE 6 10 Cloudy OVC034 63 52     67%     29.88 29.88      
Jun 17 01:53 SSW 3 10 Cloudy OVC034 63 53     70%     29.88 29.88      
Jun 17 00:53 SSE 7 10 Cloudy OVC035 63 50     63%     29.89 29.88      
Jun 16 23:53 S 8 10 Cloudy OVC035 64 50     60%     29.88 29.88      
Jun 16 22:53 S 8 10 Mostly Cloudy BKN035 63 50     63%     29.88 29.88      
Jun 16 21:53 S 11 10 Mostly Cloudy BKN035 63 50     63%     29.88 29.88      
Jun 16 20:53 S 9 10 Mostly Cloudy BKN033 63 51     65%     29.86 29.86      
Jun 16 19:53 SSE 9 10 Mostly Cloudy SCT029 BKN035 64 51     63%     29.85 29.85      
Jun 16 19:50 S 10 10 Mostly Cloudy SCT029 BKN035 63 52     68%     29.85        
Jun 16 18:53 SSW 10 10 Mostly Cloudy FEW023 BKN029 BKN035 64 53     67%     29.85 29.85      
Jun 16 17:53 SSW 13 10 Mostly Cloudy BKN024 BKN031 64 53     67%     29.85 29.85      
Jun 16 17:20 S 15 10 Mostly Cloudy SCT021 BKN027 BKN031 65 54     68%     29.85        
Jun 16 16:53 SSW 17 10 Mostly Cloudy SCT026 BKN035 BKN048 68 54     61%     29.85 29.84      
Jun 16 15:53 SSW 18 10 Mostly Cloudy SCT024 BKN036 69 54     59%     29.85 29.85      
Jun 16 14:53 SSW 20 10 Mostly Cloudy and Windy FEW024 BKN036 69 54     59%     29.86 29.85      
Jun 16 13:53 S 17 10 Mostly Cloudy SCT027 BKN034 71 54     55%   70 29.86 29.85      
Jun 16 12:53 S 16 10 Mostly Cloudy SCT027 BKN034 70 54     57%     29.85 29.85      
Jun 16 11:53 S 16 10 Mostly Cloudy SCT027 BKN036 69 54     59%     29.85 29.85      
Jun 16 10:53 S 18 10 Mostly Cloudy SCT027 BKN034 69 54     59%     29.85 29.84      
Jun 16 09:53 S 17 10 Mostly Cloudy SCT027 BKN034 68 54     61%     29.83 29.83      
Jun 16 09:00 S 15 10 Cloudy SCT027 OVC033 67 55     66%     29.82        
Jun 16 08:53 S 14 10 Cloudy BKN028 OVC033 67 55     66%     29.82 29.82      
Jun 16 07:53 SSW 6 10 Cloudy OVC028 65 57     76%     29.81 29.8      
Jun 16 06:53 SW 6 10 Cloudy OVC026 64 57     78%     29.79 29.79      
Jun 16 05:53 SSW 5 10 Cloudy OVC027 64 57     78%     29.78 29.78      
Jun 16 04:53 SSW 5 10 Cloudy OVC025 63 57     81%     29.78 29.77      
Jun 16 03:53 SSW 7 10 Cloudy OVC022 64 57     78%     29.77 29.77      
Jun 16 02:53 Calm 10 Cloudy OVC020 64 58     81%     29.77 29.77      
Jun 16 01:53 SSW 10 9 Cloudy OVC017 64 58     81%     29.78 29.78      
Jun 16 00:53 SSW 9 9 Cloudy OVC016 65 59     81%     29.78 29.78      
Jun 15 23:53 S 5 10 Cloudy OVC020 66 58     75%     29.78 29.77      
Jun 15 22:53 WSW 3 8 Mostly Cloudy BKN017 65 59     81%     29.77 29.77      
Jun 15 21:53 SSW 5 8 Mostly Cloudy BKN015 65 59     81%     29.77 29.77      
Jun 15 21:41 SSW 7 8 Mostly Cloudy BKN015 65 59     81%     29.77        
Jun 15 20:53 S 8 8 Partly Cloudy FEW015 SCT180 66 59     78%     29.76 29.75      
Jun 15 20:48 SSW 8 8 Partly Cloudy FEW015 SCT180 66 59     78%     29.76        
Jun 15 20:27 SSW 8 8 Mostly Cloudy BKN015 BKN180 66 59     78%     29.75        
Jun 15 19:53 SW 7 10 Partly Cloudy SCT015 SCT055 SCT180 67 59     76%     29.74 29.74      
Jun 15 18:53 SSW 8 10 Mostly Clear FEW015 FEW180 FEW250 69 59     70%     29.74 29.73      
Jun 15 17:53 SW 11 9 Partly Cloudy FEW017 FEW180 SCT250 69 59     70%     29.74 29.73      
Jun 15 16:53 SSW 14 10 Partly Cloudy FEW017 FEW080 SCT170 SCT250 71 59     66%   71 29.74 29.74      
Jun 15 15:53 SSW 15 9 Partly Cloudy FEW080 SCT200 SCT250 71 59     66%   71 29.76 29.75      
Jun 15 14:53 SSW 14 10 Partly Cloudy FEW090 FEW180 SCT250 73 59     61%   73 29.78 29.77      
Jun 15 13:53 SSW 11 10 Partly Cloudy FEW080 FEW180 SCT250 73 59     61%   73 29.79 29.78      
Jun 15 12:53 S 10 10 Partly Cloudy FEW080 SCT170 SCT250 76 60     58%   76 29.79 29.79      
Jun 15 11:53 SSW 13 10 Partly Cloudy FEW080 SCT170 SCT250 74 61     64%   74 29.81 29.8      
Jun 15 10:53 SSW 11 10 Mostly Cloudy FEW023 FEW055 SCT180 BKN250 72 61     68%   72 29.81 29.81      
Jun 15 09:53 SSW 7 9 Mostly Cloudy FEW022 FEW055 BKN180 72 61     68%   72 29.82 29.81      
Jun 15 08:53 3 9 Mostly Cloudy FEW020 FEW055 SCT150 BKN180 69 60     73%     29.82 29.81      
Jun 15 07:53 Calm 9 Mostly Cloudy FEW013 SCT015 BKN055 BKN200 69 61     75%     29.81 29.81      
Jun 15 07:24 Calm 9 Mostly Cloudy FEW013 BKN015 67 61     81%     29.81        
Jun 15 06:53 Calm 8 Cloudy OVC013 67 61     81%     29.81 29.8      
Jun 15 05:53 E 6 7 Cloudy OVC012 66 61     84%     29.8 29.8      
Jun 15 04:53 Calm 10 Mostly Cloudy BKN013 65 60     84%     29.79 29.79      
May 14 17:53 W 8 10 Clear CLR 65 52     63%     29.94 29.94      
May 14 15:53 SW 9 10 Mostly Clear FEW029 67 51     57%     29.96 29.96      
May 14 08:53 3 10 Partly Cloudy SCT017 63 52     67%     29.99 29.99      
May 13 20:53 W 7 10 Clear CLR 61 54     78%     29.98 29.98      
May 13 14:53 SW 10 10 Partly Cloudy SCT044 69 50     51%     29.98 29.98      
May 12 18:53 S 10 10 Mostly Cloudy FEW043 BKN050 62 52     70%     29.96 29.96      
May 12 04:53 SE 3 8 Light Rain SCT013 BKN018 OVC025 57 55     93%     29.91 29.91 0   0
May 11 23:28 5 10 Cloudy BKN010 BKN015 OVC027 59 57     93%     29.9        
May 11 21:53 SE 8 8 Cloudy SCT013 BKN018 OVC036 60 56     86%     29.87 29.87      
May 11 18:53 SE 9 9 Cloudy FEW011 SCT022 OVC026 60 55     83%     29.82 29.82      
May 11 17:53 SSE 13 10 Cloudy SCT020 BKN024 OVC031 61 54     78%     29.83 29.82      
May 11 09:53 SSE 16 9 Cloudy SCT027 OVC030 65 52     63%     29.87 29.87      
Jun 11 23:53 W 7 10 Cloudy OVC037 63 53     70%     29.99 29.98      
Jun 11 19:53 S 8 10 Partly Cloudy FEW023 SCT028 SCT035 64 54     70%     29.93 29.93      
Jun 11 14:53 SSW 18 10 Partly Cloudy FEW033 SCT038 71 53     53%   70 29.92 29.91      
Jun 11 12:53 SSE 10 10 Mostly Cloudy SCT028 BKN036 69 53     57%     29.92 29.92      
Jun 11 07:53 ESE 8 10 Cloudy BKN022 BKN030 OVC035 62 56     80%     29.89 29.89      
Jun 08 14:53 W 9 9 Mostly Clear FEW027 FEW250 72 58     61%   72 29.98 29.97      
Jun 07 22:53 3 7 Cloudy FEW013 OVC015 63 57     81%     29.98 29.98      
Jun 07 19:53 SSW 9 8 Cloudy SCT013 OVC016 63 57     81%     29.96 29.96      
Jun 07 08:59 SW 5 4 Fog/Mist SCT007 BKN010 OVC014 62 60     93%     29.95        
Jun 06 12:53 SW 7 10 Cloudy OVC013 66 59     78%     29.95 29.95      
Jun 06 00:53 S 5 10 Cloudy OVC012 63 58     84%     29.9 29.89